Regional Weather Roundup
Issued by NWS

Home | Current Version | Previous Version | Text Only | Print | Product List | Glossary Off
Versions: 1 2 3 4 5 6 7 8 9 10 11 12 13 14 15 16 17 18 19 20 21 22 23 24 25 26 27 28 29 30 31 32 33 34 35 36 37 38 39 40 41 42 43 44 45 46 47 48 49 50

671
ASUS45 KBOU 221907
RWRCO

WEATHER ROUNDUP FOR COLORADO
NATIONAL WEATHER SERVICE DENVER/BOULDER CO
1200 PM MST SUN JAN 22 2017

NOTE: "FAIR" INDICATES FEW OR NO CLOUDS BELOW 12000 FEET WITH NO
SIGNIFICANT WEATHER AND/OR OBSTRUCTIONS TO VISIBILITY.

COZ001>005-013-030-031-222000-
...NORTHWEST COLORADO...

CITY           SKY/WX    TMP DP  RH WIND       PRES   REMARKS
CRAIG          FAIR      19  13  77 CALM      30.05F
HAYDEN         FAIR      19  12  73 SW3       30.04F
MEEKER         FAIR      26  18  71 CALM      30.04F
MOUNT WERNER   NOT AVBL
STEAMBOAT SPGS FAIR      26  18  71 CALM      30.02F
WALDEN           N/A     23  10  58 S13       29.98F VSB 1   WCI  11
$$

COZ006>008-011-222000-
...WEST CENTRAL VALLEYS...

CITY           SKY/WX    TMP DP  RH WIND       PRES   REMARKS
GRAND JUNCTION FAIR      37  27  67 SE12      30.08F
MONTROSE       FAIR      34  17  50 CALM      30.12F
EAGLE          MOSUNNY   30  18  59 CALM      30.09
RIFLE          FAIR      33  20  58 CALM      30.09F
DELTA          FAIR      39  22  50 NE8       30.13F
NUCLA          FAIR      32  25  74 CALM      30.14F
$$

COZ017>023-064>068-222000-
...SOUTHWEST COLORADO...

CITY           SKY/WX    TMP DP  RH WIND       PRES   REMARKS
DURANGO        FAIR      22  15  75 E7        30.14F WCI  13
CORTEZ         FAIR      25  21  85 SW6       30.15F WCI  18
PAGOSA SPRINGS PTSUNNY   27  17  65 S5        30.15F WCI  22
TELLURIDE      PTSUNNY   24   8  50 SE3       30.08F
WOLF CREEK PAS NOT AVBL
$$

COZ009-010-012-014-032>034-037-058>063-222000-
...CENTRAL COLORADO...

CITY           SKY/WX    TMP DP  RH WIND       PRES   REMARKS
ASPEN          FAIR      27  14  58 N6        30.04F WCI  20
BUENA VISTA    FAIR      29   5  35 W22G33    29.97F WCI  16
COPPER MTN     NOT AVBL
BERTHOUD PASS  NOT AVBL
COTTONWOOD PAS FAIR      28   1  31 NW10G17   29.95F WCI  19
GUNNISON       FAIR      15   9  76 S3        30.11F
KREMMLING      FAIR      32  19  59 CALM      30.04F
LEADVILLE      FAIR      20   3  48 N15G21    29.97F WCI   6
MONARCH PASS   PTSUNNY    9   3  78 NW8       30.05S WCI  -4
SALIDA         FAIR      35   8  32 SW17G26   30.06F WCI  24
SUNLIGHT       PTSUNNY  N/A N/A N/A MISG      30.03F
WILKERSON PASS FAIR      18  -2  41 NW3       29.94F
$$

COZ069>075-222000-
...SAN LUIS VALLEY/SANGRE DE CRISTO MOUNTAINS...

CITY           SKY/WX    TMP DP  RH WIND       PRES   REMARKS
ALAMOSA        FAIR      25  15  66 E7        30.07F WCI  17
LA VETA PASS   FAIR      21  12  68 NE32G46   29.93F WCI   2
SAGUACHE       FAIR      32  10  40 NW6       30.06S WCI  26
$$

COZ035-036-038>040-222000-
...NORTHERN COLORADO FRONT RANGE...

CITY           SKY/WX    TMP DP  RH WIND       PRES   REMARKS
DENVER INTL AP FAIR      44   8  23 W8        29.91F
DMNS CITY PARK   N/A     44   2  17 N2G10     29.91F
AURORA         MOSUNNY   42   7  23 NW9       29.92F
FRONT RANGE AP MOSUNNY   45  12  26 W9G22     29.97R
ERIE MUNI ARPT FAIR      46   5  18 W13       29.91F
BOULDER MUN AP FAIR      45   7  21 SW9       29.90F
CENTENNIAL     FAIR      41   6  23 NW8       29.92F
BROOMFIELD     MOSUNNY   45   7  21 N7        29.91F
FORT COLLINS   FAIR      43  18  36 E10       29.91F
LONGMONT       FAIR      48   8  19 W16       29.93F
$$

COZ041-046-047-076>085-087-088-222000-
...PIKES PEAK/PALMER DIVIDE AND SOUTHERN FOOTHILLS...

CITY           SKY/WX    TMP DP  RH WIND       PRES   REMARKS
COLO. SPRINGS  FAIR      44  -5  12 W5        29.94S
A. F. ACADEMY  FAIR      42  -1  16 W8G17     29.91F
SCHRIEVER AFB  NOT AVBL
ELLICOTT       FAIR     N/A N/A N/A N12       29.93S
FALCON         FAIR      40  -4  15 W9        29.94S
FORT CARSON    NOT AVBL
LIMON          FAIR      42  16  34 NW13      29.93F
MONUMENT HILL  FAIR      34   9  35 W7        29.93F WCI  28
TRINIDAD       FAIR      40  15  36 NW10      29.97F
$$

COZ042>045-048>051-090-091-222000-
...NORTHEAST COLORADO...

CITY           SKY/WX    TMP DP  RH WIND       PRES   REMARKS
GREELEY ARPT   FAIR      45  13  27 SW5       29.93F
AKRON          FAIR      43  20  39 NW16      29.91F
BURLINGTON     FAIR      44  25  47 N18       29.91F
WRAY           NOT AVBL
STERLING       FAIR      46  21  36 NW18G24   29.90F
HOLYOKE        FAIR      46  27  46 NW16      29.90F
FORT MORGAN    FAIR      45  12  26 NW23      29.93F
$$

COZ086-089-092>099-222000-
...SOUTHEAST COLORADO...

CITY           SKY/WX    TMP DP  RH WIND       PRES   REMARKS
PUEBLO         FAIR      50   9  19 W16       29.94F
LA JUNTA       FAIR      45  27  49 W6        29.95F
LAMAR          FAIR      48  23  37 NW17      29.93F
SPRINGFIELD      N/A     47  21  35 N21G29    29.93F
$$




USA.gov is the U.S. government's official web portal to all federal, state and local government web resources and services.